Location: Newark
(35.2672°N, 80.7344°W)
Time: 20:28:03
(UTC+00:00)

Transit 4A - Visible Passes

Search period start: 18 January 2020 00:00
Search period end: 28 January 2020 00:00
Orbit: 871 x 973 km, 66.8° (Epoch: 18 January)

Date Brightness Start Highest point End Pass type
(mag) Time Alt. Az. Time Alt. Az. Time Alt. Az.
18 Jan 10.8 00:24:12 10° WNW 00:27:28 15° WSW 00:30:45 10° SW visible
18 Jan 10.8 11:54:51 10° SSE 11:59:25 22° ESE 12:03:56 10° ENE visible
19 Jan 8.8 22:54:42 10° NW 23:00:20 53° WSW 23:06:01 10° S visible
20 Jan 9.9 23:04:23 10° NW 23:09:32 33° WSW 23:14:43 10° S visible
21 Jan 10.8 23:14:24 10° WNW 23:18:39 21° WSW 23:22:55 10° SSW visible
22 Jan 10.9 10:46:57 10° SE 10:50:37 17° ESE 10:54:13 10° ENE visible
22 Jan 11.2 23:25:17 10° WNW 23:27:42 13° WSW 23:30:09 10° SW visible
23 Jan 10.1 10:54:46 10° SSE 10:59:42 26° ESE 11:04:34 10° NE visible
24 Jan 9.2 11:03:13 10° S 11:08:52 41° ESE 11:14:24 10° NE visible
25 Jan 8.3 11:12:05 10° SSW 11:18:05 64° ESE 11:23:58 10° NNE visible
26 Jan 10.8 09:39:47 10° ESE 09:41:49 12° ESE 09:43:50 10° E visible
26 Jan 7.8 11:21:17 10° SSW 11:27:23 84° WNW 11:33:21 10° NNE visible
27 Jan 10.3 09:46:40 10° SSE 09:50:52 20° ESE 09:55:01 10° ENE visible
27 Jan 7.9 11:30:49 10° SW 11:36:45 55° WNW 11:42:34 10° NNE visible
